DELTA 1 DEB, 7958

Orbit data source: Space-Track

DELTA 1 DEB, 7958 is space debris in SSO originally from a launch on Sun, 23 Jul 1972 UTC launched from the Air Force Western Test Range (AFWTR). Debris objects in space refer to the collection of defunct objects orbiting the Earth. Examples of debris include non-operational satellites, rocket bodies, and fragments generated from explosions, collisions, or faulty payload assembly.

Loading next visibility...
Identifier
7958, 1972-058CN
Orbit
SSO
Country
Flag of USUS
Related business
Manufacturer
Unknown
Mission
Spacecraft
Bus & Motor
Unknown
Mass
Unknown
Launch date (UTC)
1972-07-23 (53 years ago)
Launch vehicle
Unknown
Launch site
Air Force Western Test Range (AFWTR)
Object type
Payload
Rocket body
Debris
Shape & HBR
Unknown shape, 0.2 m
Radar Cross Section
Medium (>0.1 m² and <1 m²)

Expand to show TLE details & history
Last TLE update: 6 hours ago

TLE from 6 hours ago
0 DELTA 1 DEB
1  7958U 72058CN  25343.14439120  .00002350  00000-0  10426-2 0  9997
2  7958  97.6765 210.9177 0298878 310.9808  46.5852 14.02712741679628
Epoch: 2025-12-09T03:27Z
TLE epoch observation values (Epoch: 2025-12-09T03:27:55.399Z)
Latitude
-0.00005°
Longitude
80.80359°
Altitude
741.664 km
Speed
7.559 km/s
True Right ascension
14h 03m 40s
True Declination
0° 00' 00"
Sunlit
Object was in daylight at epoch
Visualization orbit readout
Latitude
Unknown
Longitude
Unknown
Altitude
Unknown
Speed
Unknown
Apparent Right ascension
Unknown
Apparent Declination
Unknown
Sunlit
N/A
Visualization observer readout
Local Sidereal Time
07:21:38
Azimuth
Unknown
Elevation
Unknown
Doppler factor
Unknown
Orbital elements
Apogee altitude
1,098.524 km
Perigee altitude
664.572 km
Semi-major axis
7,259.685 km
Eccentricity
0.02989
Inclination
97.6765°
RAAN
210.9177°
Arg. of periapsis
310.9808°
True anomaly
49.13767°
Mean anomaly
46.5852°
Eccentric anomaly
47.85489°
Mean motion
3.50886 °/min
Orbital period
102.6 mins
BSTAR
0.0010426
Loading maneuver chart data...
Computing Atmospheric mass density...

Documentation

Showing up to 5 results
|